This demonstration page uses our WeatherBlox Daily Observations layout. Learn more.

Left ArrowRight Arrow

39.92423, -83.80882

Hourly Observations for March 10, 2021

Temp ( °F °C ) Dew Point ( °F °C ) Humidity (%) Winds ( mph kmh ) Pressure ( in mb ) Visibility ( mi km ) Precip ( " mm )
12:56 am 00:56 Clear 47 8.3 27 -2.8 46 46 S 7 11 30.29 1026 10 16 N/A
1:56 am 01:56 Clear 45 7.2 28 -2.2 52 52 SSE 9 15 30.29 1026 10 16 N/A
2:56 am 02:56 Clear 48 8.9 27 -2.8 44 44 S 7 11 30.27 1025 10 16 N/A
3:56 am 03:56 Clear 47 8.3 27 -2.8 46 46 S 7 11 30.26 1025 10 16 N/A
4:56 am 04:56 Clear 47 8.3 27 -2.8 46 46 S 9 15 30.27 1025 10 16 N/A
5:56 am 05:56 Clear 46 7.8 28 -2.2 50 50 S 8 13 30.28 1026 10 16 N/A
6:56 am 06:56 Sunny 47 8.3 28 -2.2 48 48 S 9 15 30.28 1026 10 16 N/A
7:56 am 07:56 Sunny 48 8.9 30 -1.1 50 50 S 10 17 30.29 1026 10 16 N/A
8:56 am 08:56 Mostly Sunny 54 12.2 31 -0.6 42 42 SSW 10 17 30.30 1026 10 16 N/A
9:56 am 09:56 Mostly Cloudy 59 15 34 1.1 39 39 SSW 13 20 30.28 1025 10 16 N/A
10:56 am 10:56 Sunny 61 16.1 37 2.8 41 41 SSW 13 20 30.26 1025 10 16 N/A
11:56 am 11:56 Mostly Sunny 65 18.3 43 6.1 45 45 SSW 21 33 30.23 1024 10 16 N/A
12:56 pm 12:56 Partly Cloudy 67 19.4 46 7.8 47 47 SSW 22 35 30.22 1023 10 16 N/A
1:56 pm 13:56 Sunny 67 19.4 46 7.8 47 47 SSW 18 30 30.17 1022 10 16 N/A
2:56 pm 14:56 Sunny 67 19.4 44 6.7 44 44 SSW 22 35 30.14 1021 10 16 N/A
3:56 pm 15:56 Sunny 67 19.4 42 5.6 41 41 SSW 22 35 30.14 1021 10 16 N/A
4:56 pm 16:56 Sunny 66 18.9 40 4.4 39 39 SSW 15 24 30.13 1020 10 16 N/A
5:56 pm 17:56 Sunny 65 18.3 38 3.3 37 37 S 9 15 30.12 1020 10 16 N/A
6:56 pm 18:56 Clear 63 17.2 38 3.3 40 40 S 12 19 30.13 1020 10 16 N/A
7:56 pm 19:56 Clear 62 16.7 37 2.8 40 40 S 12 19 30.13 1020 10 16 N/A
8:56 pm 20:56 Clear 60 15.6 37 2.8 42 42 SSW 10 17 30.14 1021 10 16 N/A
9:56 pm 21:56 Clear 60 15.6 36 2.2 41 41 S 7 11 30.14 1021 10 16 N/A
10:56 pm 22:56 Clear 57 13.9 37 2.8 47 47 S 8 13 30.14 1021 10 16 N/A
11:56 pm 23:56 Mostly Cloudy 59 15 38 3.3 46 46 SSW 12 19 30.12 1020 10 16 N/A

Powered by AerisWeather